Scott AFB/Midamerica Airport
KBLV : now visible

Airfield :











YOU CAN JOIN US ON...

 
LOGIN :

Register | Disclaimer

   EN    FR    IT 

 









Legend :    VFR   Marginal VFR   IFR   Intensive IFR   Very Intensive IFR
Visi :
Ceiling :
>= 8 km
>= 3000ft
5 to 8 km
1000 to 3000 ft
1500m to 5 km
500 to 1000 ft
800 to 1500m
200 to 500 ft
< 800m
< 200 ft
Symbols :   Thunderstorms  Fog  Heavy snow  Heavy precipitations  Wind > 20 kt






- Airport Elevation : 459 ft


KBLV - Scott AFB/Midamerica

CURRENT METAR :
  • 190856Z 21003KT 10SM FEW050 SCT200 26/24 A2988 RMK SLP116 T02620236 $

EXPIRED METARs :
  • 190756Z 00000KT 10SM BKN210 27/24 A2986 RMK SLP109 T02650235 $
  • 190656Z VRB05KT 10SM BKN200 27/23 A2982 RMK SLP095 T02710233 $

TAF TAF KBLV
Valid from the 19 at 08:00 until the 20 at 14:00 UTC


190800Z 1908/2014 22008KT 9999 FEW050 QNH2980INS
BECMG 1914/1915 22010G15KT 9999 SCT050 QNH2980INS
TEMPO 1921/1923 22015G20KT 8000 -TSRA OVC030CB
BECMG 1923/1924 20006KT 9999 SCT060 QNH2971INS TX37/1919Z TN26/2007Z
KZKC FIR / North America



MET'MAP, your aeronautical weather chart ! - Copyright ORBIFLY December 2007 - Disclaimer

ORBIFLY MET'MAP TEAM :

Programming & Development : Alexandra Zaïnal
Concept & original design : Baudouin d'Aumeries
Assistance for programming : Marc-Olivier Méhu
Technical & hardware support : Manuel Goepfert

Contact : metmap@orbifly.com




SOURCES & CREDITS :

   NOAA       Earth
Advisory